Air Resources Laboratory banner image
Air Resources Laboratory web site National Oceanic and Atmospheric Administration (NOAA)

la roundup


Office: LIX

ASUS44 KLIX 111806
RWRLA
LOUISIANA WEATHER ROUNDUP
NATIONAL WEATHER SERVICE NEW ORLEANS LA
100 PM CDT THU AUG 11 2022

NOTE: "FAIR" INDICATES FEW OR NO CLOUDS BELOW 12,000 FEET WITH NO
      SIGNIFICANT WEATHER AND/OR OBSTRUCTIONS TO VISIBILITY.
      SKY/WX - SKY CONDITION AND SIGNIFICANT WEATHER.
      TMP - AIR TEMPERATURE.    DP   - DEWPOINT TEMPERATURE.
      RH  - RELATIVE HUMIDITY.  PRES - PRESSURE.
      HX  - HEAT INDEX.         WCI  - WIND CHILL INDEX.

*  THESE STATIONS ARE NOT NWS OR FAA STATIONS AND ARE NOT UNDER
   NWS QUALITY CONTROL.

LAZ048-061-063-065-066-069-076-077-111900-
SOUTHEAST LOUISIANA

CITY           SKY/WX    TMP DP  RH WIND       PRES   REMARKS
N.O. INTL ARPT PTSUNNY   84  74  71 S8        30.03F
6HR MIN TEMP:  75; 6HR MAX TEMP:  85; 6HR PCP: TRACE;

N.O. DWNTWN HE CLOUDY    82  74  76 VRB5      30.04F
6HR MIN TEMP:  76; 6HR MAX TEMP:  84;

N.O. LAKEFRONT PTSUNNY   83  73  72 SE9       30.04F
6HR MIN TEMP:  76; 6HR MAX TEMP:  85; 6HR PCP: TRACE;

RESERVE*       NOT AVBL
SLIDELL        CLOUDY    80  76  87 CALM      30.04F
6HR MIN TEMP:  75; 6HR MAX TEMP:  83; 6HR PCP:  0.01;

BATON ROUGE    PTSUNNY   84  74  71 NE10      30.01F
6HR MIN TEMP:  75; 6HR MAX TEMP:  86; 6HR PCP: TRACE;

BOOTHVILLE*    CLOUDY    80  76  86 S3        30.07F
6HR MIN TEMP:  78; 6HR MAX TEMP:  82; 6HR PCP:  0.16;

BELLE CHASSE*  PTSUNNY   84  75  74 SE12      30.03F
6HR MIN TEMP:  74; 6HR MAX TEMP:  84;

BOGALUSA*      CLOUDY    83  76  79 S15       30.04S
6HR MIN TEMP:  73; 6HR MAX TEMP:  86; 6HR PCP:  0.01;

GALLIANO*      NOT AVBL
NEW ROADS*     MOCLDY    84  75  74 NE6       30.02F
6HR MIN TEMP:  73; 6HR MAX TEMP:  84;

GONZALES*      DRIZZLE   80  77  89 CALM      30.01F
6HR MIN TEMP:  76; 6HR MAX TEMP:  86; 6HR PCP:  0.27;

HAMMOND*       NOT AVBL
HOUMA*         PTSUNNY   81  75  83 S8        30.04F

$$

LAZ041-044-053-054-111900-
SOUTHWEST LOUISIANA

CITY           SKY/WX    TMP DP  RH WIND       PRES   REMARKS
LAKE CHARLES   MOSUNNY   87  74  64 NE5       30.00F HX  95
6HR MIN TEMP:  72; 6HR MAX TEMP:  87;

LAFAYETTE      CLOUDY    85  74  69 N7        30.01F
6HR MIN TEMP:  75; 6HR MAX TEMP:  87;

PATTERSON      PTSUNNY  N/A N/A N/A SE5         N/A
SALT POINT       N/A     80  75  84 E7        30.00F
6HR MIN TEMP:  74; 6HR MAX TEMP:  81; 6HR PCP:  0.03;

NEW IBERIA     PTSUNNY   82  74  76 W6        30.01F
6HR MIN TEMP:  76; 6HR MAX TEMP:  87;

CHENAULT AIRPK PTSUNNY   88  73  62 NE7       30.00F HX  96

$$

LAZ027-028-111900-
CENTRAL LOUISIANA

CITY           SKY/WX    TMP DP  RH WIND       PRES   REMARKS
FORT POLK      PTSUNNY   88  73  60 E5        30.01F
6HR MIN TEMP:  72; 6HR MAX TEMP:  88;

ALEXANDRIA INT PTSUNNY   89  72  56 SE7       30.01F HX  96
6HR MIN TEMP:  74; 6HR MAX TEMP:  90;

ALEXANDRIA     MOSUNNY   89  73  59 E6        30.02F HX  97
6HR MIN TEMP:  73; 6HR MAX TEMP:  89;


$$

LAZ001-002-111900-
NORTHWEST LOUISIANA

CITY           SKY/WX    TMP DP  RH WIND       PRES   REMARKS
SHREVEPORT     PTSUNNY   91  72  53 N9        30.02F HX  98
6HR MIN TEMP:  77; 6HR MAX TEMP:  92;

BARKSDALE AFB  MOSUNNY   89  72  56 NW8       30.02F HX  96
6HR MIN TEMP:  73; 6HR MAX TEMP:  91;

DTN SHREVEPORT MOSUNNY   89  72  56 N5        30.03F HX  96
6HR MIN TEMP:  75; 6HR MAX TEMP:  90;


$$

LAZ014-016-111900-
NORTHEAST LOUISIANA

CITY           SKY/WX    TMP DP  RH WIND       PRES   REMARKS
MONROE         MOSUNNY   88  75  65 NE8       30.04F HX  97
6HR MIN TEMP:  75; 6HR MAX TEMP:  89;

TALLULAH       SUNNY     87  73  62 E5        30.04F
6HR MIN TEMP:  75; 6HR MAX TEMP:  89;


$$



ASUS44 KLIX 111806
RWRLIX
NEW ORLEANS REGIONAL WEATHER ROUNDUP
NATIONAL WEATHER SERVICE NEW ORLEANS LA
100 PM CDT THU AUG 11 2022

NOTE: "FAIR" INDICATES FEW OR NO CLOUDS BELOW 12,000 FEET WITH NO
      SIGNIFICANT WEATHER AND/OR OBSTRUCTIONS TO VISIBILITY.
      SKY/WX - SKY CONDITION AND SIGNIFICANT WEATHER.
      TMP - AIR TEMPERATURE.     DP    - DEWPOINT TEMPERATURE.
      RH  - RELATIVE HUMIDITY.   PRES  - PRESSURE.
      HI  - HEAT INDEX.          WCI   - WIND CHILL INDEX.

*  THESE STATIONS ARE NOT NWS OR FAA STATIONS AND ARE NOT UNDER
   NWS QUALITY CONTROL.

LAZ038-048-061-063-065>067-069-076-077-111900-
SOUTHEAST LOUISIANA

CITY           SKY/WX    TMP DP  RH WIND       PRES   REMARKS
N.O. INTL ARPT PTSUNNY   84  74  71 S8        30.03F
6HR MIN TEMP:  75; 6HR MAX TEMP:  85; 6HR PCP: TRACE;

N.O. DWNTWN HE CLOUDY    82  74  76 VRB5      30.04F
6HR MIN TEMP:  76; 6HR MAX TEMP:  84;

N.O. LAKEFRONT PTSUNNY   83  73  72 SE9       30.04F
6HR MIN TEMP:  76; 6HR MAX TEMP:  85; 6HR PCP: TRACE;

RESERVE*       NOT AVBL
SLIDELL        CLOUDY    80  76  87 CALM      30.04F
6HR MIN TEMP:  75; 6HR MAX TEMP:  83; 6HR PCP:  0.01;

BATON ROUGE    PTSUNNY   84  74  71 NE10      30.01F
6HR MIN TEMP:  75; 6HR MAX TEMP:  86; 6HR PCP: TRACE;

BOOTHVILLE*    CLOUDY    80  76  86 S3        30.07F
6HR MIN TEMP:  78; 6HR MAX TEMP:  82; 6HR PCP:  0.16;

BELLE CHASSE*  PTSUNNY   84  75  74 SE12      30.03F
6HR MIN TEMP:  74; 6HR MAX TEMP:  84;

BOGALUSA*      CLOUDY    83  76  79 S15       30.04S
6HR MIN TEMP:  73; 6HR MAX TEMP:  86; 6HR PCP:  0.01;

GALLIANO*      NOT AVBL
NEW ROADS*     MOCLDY    84  75  74 NE6       30.02F
6HR MIN TEMP:  73; 6HR MAX TEMP:  84;

GONZALES*      DRIZZLE   80  77  89 CALM      30.01F
6HR MIN TEMP:  76; 6HR MAX TEMP:  86; 6HR PCP:  0.27;

HAMMOND*       NOT AVBL
HOUMA*         PTSUNNY   81  75  83 S8        30.04F

$$

MSZ070-077-080>082-111900-
SOUTHERN MISSISSIPPI

CITY           SKY/WX    TMP DP  RH WIND       PRES   REMARKS
MCCOMB         PTSUNNY   84  72  67 VRB6      30.04F
6HR MIN TEMP:  71; 6HR MAX TEMP:  85;

PICAYUNE*      HVY RAIN  75  75 100 SW7G16    30.04S VSB<1/4
GULFPORT       MOSUNNY   84  76  76 S9        30.04F
6HR MIN TEMP:  76; 6HR MAX TEMP:  85;

BILOXI         MOSUNNY   84  75  72 S8        30.03F
6HR MIN TEMP:  74; 6HR MAX TEMP:  85; 6HR PCP:  0.01;

PASCAGOULA     LGT RAIN  82  77  84 VRB3      30.04F
6HR MIN TEMP:  76; 6HR MAX TEMP:  87; 6HR PCP:  0.02;

STENNIS ARPT*  MOSUNNY   86  73  66 SE14      30.04S

$$

COASTAL OBSERVATIONS
LAKE AND NEARSHORE STATIONS

STATION/POSITION TIME  SKY/WX   TEMP    WIND        PRES    WAVE
                                AIR SEA DIR/SP/G            HT/PER
                 (UTC)          (F)     (DEG/KT/KT) (MB)    (FT/S)
WAVELAND YACHT   1724            83 85  160/ 13/ 15 1017.8
GRAND ISLE       1724            77 85              1017.8
SOUTHWEST PASS   1724            75 86              1017.0
NEW CANAL        1724            77     140/  3/  8 1016.7
SHELL BEACH      1724            78 84  120/  8/  9 1018.1

OFFSHORE STATIONS

STATION/POSITION TIME  SKY/WX   TEMP    WIND        PRES    WAVE
                                AIR SEA DIR/SP/G            HT/PER
                 (UTC)          (F)     (DEG/KT/KT) (MB)    (FT/S)
64 S DAUPHIN ISL 1740               85  220/ 25/ 33 1018.7
SW PASS ENTRANCE 1730            75 84                N/A     2/ 7
LA OFFSHORE OIL  1740                                 N/A     2

$$





Office: LCH ASUS44 KLCH 111710 RWRLCH REGIONAL WEATHER ROUNDUP NATIONAL WEATHER SERVICE LAKE CHARLES LA 1200 PM CDT THU AUG 11 2022 Note: "fair" indicates few or no clouds below 12,000 feet with no significant weather and/or obstructions to visibility. ACROSS SOUTHEAST TEXAS CITY SKY/WX TMP DP RH WIND PRES REMARKS BEAUMONT MOSUNNY 87 77 72 N9 30.01F BEAUMONT CITY FAIR 86 75 68 NE3 30.02F ORANGE MOSUNNY 86 80 82 NE6 30.04F HX 102 JASPER MOSUNNY 86 77 74 VRB5 30.02F $$ ACROSS CENTRAL LOUISIANA CITY SKY/WX TMP DP RH WIND PRES REMARKS LEESVILLE MOSUNNY 85 73 67 E3 30.03F FULLERTON PTSUNNY 83 74 74 CALM 30.02F ALEXANDRIA INT MOSUNNY 87 72 60 E8 30.02F ESLER FIELD CLOUDY 85 75 72 NE3 30.04F DERIDDER PTSUNNY 87 73 62 NE3 30.05F OAKDALE MOSUNNY 88 73 62 NE5 30.03F OPELOUSAS FAIR 79 79 100 CALM 30.04F $$ ACROSS SOUTHWEST AND SOUTH CENTRAL LOUISIANA CITY SKY/WX TMP DP RH WIND PRES REMARKS DEQUINCY PTSUNNY 85 75 71 N3 30.03F SULPHUR PTSUNNY 85 77 78 E3 30.03F LAKE CHARLES PTSUNNY 86 74 67 NE7 30.02F CHENNAULT INT PTSUNNY 86 75 70 NE8 30.03F JENNINGS PTSUNNY 85 74 70 NE8 30.04S LAFAYETTE PTSUNNY 82 76 81 CALM 30.03F NEW IBERIA CLOUDY 85 73 67 E7 30.02F ABBEVILLE FAIR 85 73 65 N6 30.03F PATTERSON CLOUDY N/A N/A N/A S3 N/A SALT POINT N/A 79 76 90 SE5 30.02F $$ SELECTED SITES ACROSS THE REGION CITY SKY/WX TMP DP RH WIND PRES REMARKS HOUSTON BUSH PTSUNNY 88 74 63 VRB3 30.03F HOUSTON HOBBY PTSUNNY 89 70 53 NW9 30.03S GALVESTON MOSUNNY 89 76 65 N10 30.03S HX 100 COLLEGE STAT MOSUNNY 93 69 45 VRB3 30.03F CONROE PTSUNNY 86 73 65 N9 30.04F HUNTSVILLE PTSUNNY 86 73 65 MISG 30.05S LUFKIN MOSUNNY 89 72 56 CALM 30.04F SHREVEPORT MOSUNNY 89 72 56 N6 30.04S MONROE CLOUDY 83 74 74 N6 30.06S NATCHEZ MS MOSUNNY 83 75 77 E9 30.07S BATON ROUGE PTSUNNY 86 75 69 CALM 30.03F N.O. INTL ARPT PTSUNNY 82 75 79 S9 30.05S SLIDELL CLOUDY 82 75 79 NW3 30.05S $$ MARINE REPORTS STATION/POSITION TIME SKY/WX TEMP WIND PRES VSBY AIR SEA DIR/SP/G (UTC) (F) (DEG/KT/KT) (MB) (MI) BUOY 30 S HIGH I 1650 10/ 8/ 12 1016.5F SEA RIM ST PARK 1600 81 340/ 7/ 9 1016.9R PORT ARTHUR 1630 83 88 40/ 4/ 7 1016.8F TEXAS POINT 1630 83 87 10/ 10/ 15 1015.7F CALCASIEU PASS 1630 83 87 30/ 10/ 13 1016.7F LK CHARLES BEACH 1630 84 88 1017.2F MARSH ISLAND NOT AVBL FRESH WATER LOCK NOT AVBL AMERADA PASS 1630 78 84 100/ 2/ 5 1017.5F $$